Time,TemperatureF,DewpointF,PressureIn,WindDirection,WindDirectionDegrees,WindSpeedMPH,WindSpeedGustMPH,Humidity,HourlyPrecipIn,Conditions,Clouds,dailyrainin,SoftwareType,DateUTC
2013-05-12 00:00:00,56.0,50.0,-100.00,North,6,1.0,-999.0,78,0.00,,,-99.99,,2013-05-12 07:00:00,
2013-05-12 00:22:00,56.0,50.0,-100.00,North,6,1.0,-999.0,78,0.00,,,-99.99,,2013-05-12 07:22:00,
2013-05-12 00:32:00,56.0,50.0,-100.00,North,6,1.0,-999.0,78,0.00,,,-99.99,,2013-05-12 07:32:00,
2013-05-12 00:42:00,56.0,50.0,-100.00,North,6,1.0,-999.0,78,0.00,,,-99.99,,2013-05-12 07:42:00,
2013-05-12 00:52:00,56.0,50.0,-100.00,North,6,1.0,-999.0,78,0.00,,,-99.99,,2013-05-12 07:52:00,
2013-05-12 01:00:00,54.0,50.0,-100.00,NNW,347,3.0,-999.0,83,0.00,,,-99.99,,2013-05-12 08:00:00,
2013-05-12 01:21:00,54.0,50.0,-100.00,NNW,347,3.0,-999.0,83,0.00,,,-99.99,,2013-05-12 08:21:00,
2013-05-12 01:32:00,54.0,50.0,-100.00,NNW,347,3.0,-999.0,83,0.00,,,-99.99,,2013-05-12 08:32:00,
2013-05-12 01:42:00,54.0,50.0,-100.00,NNW,347,3.0,-999.0,83,0.00,,,-99.99,,2013-05-12 08:42:00,
2013-05-12 01:53:00,54.0,50.0,-100.00,NNW,347,3.0,-999.0,83,0.00,,,-99.99,,2013-05-12 08:53:00,
2013-05-12 02:00:00,53.0,50.0,-100.00,East,81,0.0,-999.0,87,0.00,,,-99.99,,2013-05-12 09:00:00,
2013-05-12 02:21:00,53.0,50.0,-100.00,East,81,0.0,-999.0,87,0.00,,,-99.99,,2013-05-12 09:21:00,
2013-05-12 02:33:00,53.0,50.0,-100.00,East,81,0.0,-999.0,87,0.00,,,-99.99,,2013-05-12 09:33:00,
2013-05-12 02:43:00,53.0,50.0,-100.00,East,81,0.0,-999.0,87,0.00,,,-99.99,,2013-05-12 09:43:00,
2013-05-12 02:53:00,53.0,50.0,-100.00,East,81,0.0,-999.0,87,0.00,,,-99.99,,2013-05-12 09:53:00,
2013-05-12 03:00:00,52.0,49.0,-100.00,NW,313,0.0,-999.0,89,0.00,,,-99.99,,2013-05-12 10:00:00,
2013-05-12 03:23:00,52.0,49.0,-100.00,NW,313,0.0,-999.0,89,0.00,,,-99.99,,2013-05-12 10:23:00,
2013-05-12 03:33:00,52.0,49.0,-100.00,NW,313,0.0,-999.0,89,0.00,,,-99.99,,2013-05-12 10:33:00,
2013-05-12 03:42:00,52.0,49.0,-100.00,NW,313,0.0,-999.0,89,0.00,,,-99.99,,2013-05-12 10:42:00,
2013-05-12 03:52:00,52.0,49.0,-100.00,NW,313,0.0,-999.0,89,0.00,,,-99.99,,2013-05-12 10:52:00,
2013-05-12 04:00:00,51.0,48.0,-100.00,ESE,119,2.0,-999.0,91,0.00,,,-99.99,,2013-05-12 11:00:00,
2013-05-12 04:22:00,51.0,48.0,-100.00,ESE,119,2.0,-999.0,91,0.00,,,-99.99,,2013-05-12 11:22:00,
2013-05-12 04:32:00,51.0,48.0,-100.00,ESE,119,2.0,-999.0,91,0.00,,,-99.99,,2013-05-12 11:32:00,
2013-05-12 04:42:00,51.0,48.0,-100.00,ESE,119,2.0,-999.0,91,0.00,,,-99.99,,2013-05-12 11:42:00,
2013-05-12 04:52:00,51.0,48.0,-100.00,ESE,119,2.0,-999.0,91,0.00,,,-99.99,,2013-05-12 11:52:00,
2013-05-12 05:00:00,50.0,48.0,-100.00,South,169,1.0,-999.0,92,0.00,,,-99.99,,2013-05-12 12:00:00,
2013-05-12 05:22:00,50.0,48.0,-100.00,South,169,1.0,-999.0,92,0.00,,,-99.99,,2013-05-12 12:22:00,
2013-05-12 05:32:00,50.0,48.0,-100.00,South,169,1.0,-999.0,92,0.00,,,-99.99,,2013-05-12 12:32:00,
2013-05-12 05:42:00,50.0,48.0,-100.00,South,169,1.0,-999.0,92,0.00,,,-99.99,,2013-05-12 12:42:00,
2013-05-12 05:52:00,50.0,48.0,-100.00,South,169,1.0,-999.0,92,0.00,,,-99.99,,2013-05-12 12:52:00,
2013-05-12 06:00:00,49.0,47.0,-100.00,SSE,157,3.0,-999.0,93,0.00,,,-99.99,,2013-05-12 13:00:00,
2013-05-12 06:21:00,49.0,47.0,-100.00,SSE,157,3.0,-999.0,93,0.00,,,-99.99,,2013-05-12 13:21:00,
2013-05-12 06:32:00,49.0,47.0,-100.00,SSE,157,3.0,-999.0,93,0.00,,,-99.99,,2013-05-12 13:32:00,
2013-05-12 06:42:00,49.0,47.0,-100.00,SSE,157,3.0,-999.0,93,0.00,,,-99.99,,2013-05-12 13:42:00,
2013-05-12 06:52:00,49.0,47.0,-100.00,SSE,157,3.0,-999.0,93,0.00,,,-99.99,,2013-05-12 13:52:00,
2013-05-12 07:00:00,49.0,47.0,-100.00,SSE,165,0.0,-999.0,94,0.00,,,-99.99,,2013-05-12 14:00:00,
2013-05-12 07:21:00,49.0,47.0,-100.00,SSE,165,0.0,-999.0,94,0.00,,,-99.99,,2013-05-12 14:21:00,
2013-05-12 07:32:00,49.0,47.0,-100.00,SSE,165,0.0,-999.0,94,0.00,,,-99.99,,2013-05-12 14:32:00,
2013-05-12 07:42:00,49.0,47.0,-100.00,SSE,165,0.0,-999.0,94,0.00,,,-99.99,,2013-05-12 14:42:00,
2013-05-12 07:52:00,49.0,47.0,-100.00,SSE,165,0.0,-999.0,94,0.00,,,-99.99,,2013-05-12 14:52:00,
2013-05-12 08:00:00,49.0,47.0,-100.00,SSE,162,2.0,-999.0,92,0.00,,,-99.99,,2013-05-12 15:00:00,
2013-05-12 08:21:00,49.0,47.0,-100.00,SSE,162,2.0,-999.0,92,0.00,,,-99.99,,2013-05-12 15:21:00,
2013-05-12 08:34:00,49.0,47.0,-100.00,SSE,162,2.0,-999.0,92,0.00,,,-99.99,,2013-05-12 15:34:00,
2013-05-12 08:42:00,49.0,47.0,-100.00,SSE,162,2.0,-999.0,92,0.00,,,-99.99,,2013-05-12 15:42:00,
2013-05-12 08:53:00,49.0,47.0,-100.00,SSE,162,2.0,-999.0,92,0.00,,,-99.99,,2013-05-12 15:53:00,
2013-05-12 09:00:00,55.0,50.0,-100.00,South,184,2.0,-999.0,81,0.00,,,-99.99,,2013-05-12 16:00:00,
2013-05-12 09:23:00,55.0,50.0,-100.00,South,184,2.0,-999.0,81,0.00,,,-99.99,,2013-05-12 16:23:00,
2013-05-12 09:33:00,55.0,50.0,-100.00,South,184,2.0,-999.0,81,0.00,,,-99.99,,2013-05-12 16:33:00,
2013-05-12 09:42:00,55.0,50.0,-100.00,South,184,2.0,-999.0,81,0.00,,,-99.99,,2013-05-12 16:42:00,
2013-05-12 09:52:00,55.0,50.0,-100.00,South,184,2.0,-999.0,81,0.00,,,-99.99,,2013-05-12 16:52:00,
2013-05-12 10:00:00,66.0,55.0,-100.00,West,262,1.0,-999.0,67,0.00,,,-99.99,,2013-05-12 17:00:00,
2013-05-12 10:22:00,66.0,55.0,-100.00,West,262,1.0,-999.0,67,0.00,,,-99.99,,2013-05-12 17:22:00,
2013-05-12 10:32:00,66.0,55.0,-100.00,West,262,1.0,-999.0,67,0.00,,,-99.99,,2013-05-12 17:32:00,
2013-05-12 10:52:00,66.0,55.0,-100.00,West,262,1.0,-999.0,67,0.00,,,-99.99,,2013-05-12 17:52:00,
2013-05-12 11:22:00,74.0,56.0,-100.00,NE,50,0.0,-999.0,53,0.00,,,-99.99,,2013-05-12 18:22:00,
2013-05-12 11:32:00,74.0,56.0,-100.00,NE,50,0.0,-999.0,53,0.00,,,-99.99,,2013-05-12 18:32:00,
2013-05-12 12:22:00,79.0,56.0,-100.00,South,175,6.0,-999.0,45,0.00,,,-99.99,,2013-05-12 19:22:00,
2013-05-12 12:32:00,79.0,56.0,-100.00,South,175,6.0,-999.0,45,0.00,,,-99.99,,2013-05-12 19:32:00,
2013-05-12 13:22:00,80.0,58.0,-100.00,North,7,1.0,-999.0,46,0.00,,,-99.99,,2013-05-12 20:22:00,
2013-05-12 13:32:00,80.0,58.0,-100.00,North,7,1.0,-999.0,46,0.00,,,-99.99,,2013-05-12 20:32:00,
2013-05-12 14:22:00,80.0,57.0,-100.00,NNW,331,2.0,-999.0,45,0.00,,,-99.99,,2013-05-12 21:22:00,
2013-05-12 14:33:00,80.0,57.0,-100.00,NNW,331,2.0,-999.0,45,0.00,,,-99.99,,2013-05-12 21:33:00,
2013-05-12 15:23:00,81.0,57.0,-100.00,NNW,335,4.0,-999.0,43,0.00,,,-99.99,,2013-05-12 22:23:00,
2013-05-12 15:33:00,81.0,57.0,-100.00,NNW,335,4.0,-999.0,43,0.00,,,-99.99,,2013-05-12 22:33:00,
2013-05-12 16:00:00,79.0,51.0,-100.00,NNW,334,6.0,-999.0,37,0.00,,,-99.99,,2013-05-12 23:00:00,
2013-05-12 16:22:00,79.0,51.0,-100.00,NNW,334,6.0,-999.0,37,0.00,,,-99.99,,2013-05-12 23:22:00,
2013-05-12 16:32:00,79.0,51.0,-100.00,NNW,334,6.0,-999.0,37,0.00,,,-99.99,,2013-05-12 23:32:00,
2013-05-12 16:42:00,79.0,51.0,-100.00,NNW,334,6.0,-999.0,37,0.00,,,-99.99,,2013-05-12 23:42:00,
2013-05-12 16:52:00,79.0,51.0,-100.00,NNW,334,6.0,-999.0,37,0.00,,,-99.99,,2013-05-12 23:52:00,
2013-05-12 17:00:00,79.0,-99.9,-100.00,NW,314,3.0,-999.0,29,0.00,,,-99.99,,2013-05-13 00:00:00,
2013-05-12 17:22:00,79.0,45.0,-100.00,NW,314,3.0,-999.0,29,0.00,,,-99.99,,2013-05-13 00:22:00,
2013-05-12 17:32:00,79.0,45.0,-100.00,NW,314,3.0,-999.0,29,0.00,,,-99.99,,2013-05-13 00:32:00,
2013-05-12 17:42:00,79.0,-99.9,-100.00,NW,314,3.0,-999.0,29,0.00,,,-99.99,,2013-05-13 00:42:00,
2013-05-12 17:52:00,79.0,-99.9,-100.00,NW,314,3.0,-999.0,29,0.00,,,-99.99,,2013-05-13 00:52:00,
2013-05-12 18:22:00,80.0,46.0,-100.00,WSW,248,0.0,-999.0,30,0.00,,,-99.99,,2013-05-13 01:22:00,
2013-05-12 18:32:00,80.0,46.0,-100.00,WSW,248,0.0,-999.0,30,0.00,,,-99.99,,2013-05-13 01:32:00,